Location: Bishopstone
(51.0167°N, 1.9000°W)
Time: 05:09:07
(UTC+00:00)

Terra - Pass Details

Date: 16 September 2019
Orbit: 701 x 703 km, 98.2° (Epoch: 23 October)

Event Time Altitude Azimuth Distance (km) Brightness Sun altitude
Exits shadow 21:57:28 47° 346° (NNW) 930 2.7 -30.2°
Drops below altitude 10° 22:00:53 10° 346° (NNW) 2,184 5.1 -30.6°
Sets 22:03:09 0° 346° (NNW) 3,107 6.1 -30.8°
